Location: ČR
(50.0000°N, 15.0000°E)
Time: 08:01:41
(UTC+00:00)

Explorer 7 - All Passes

Search period start: 21 October 2021 00:00
Search period end: 31 October 2021 00:00
Orbit: 484 x 676 km, 50.3° (Epoch: 20 October)

Date Brightness Start Highest point End Pass type
(mag) Time Alt. Az. Time Alt. Az. Time Alt. Az.
21 Oct - 01:37:29 10° W 01:42:03 74° SSW 01:46:51 10° ESE visible
21 Oct - 03:18:11 10° W 03:22:15 29° SW 03:26:26 10° SSE visible
21 Oct - 20:41:47 10° SSW 20:45:06 23° SE 20:48:36 10° E night (unlit)
21 Oct - 22:20:52 10° WSW 22:25:06 69° SSE 22:29:38 10° E night (unlit)
22 Oct - 00:01:13 10° W 00:05:39 85° N 00:10:22 10° E night (unlit)
22 Oct - 01:41:41 10° WNW 01:46:12 61° SSW 01:50:56 10° ESE visible
22 Oct - 03:22:40 10° W 03:26:13 21° SW 03:29:51 10° S visible
22 Oct - 20:45:23 10° SSW 20:49:05 32° SSE 20:53:00 10° E night (unlit)
22 Oct - 22:25:00 10° WSW 22:29:16 82° SSE 22:33:50 10° E night (unlit)
23 Oct - 00:05:25 10° W 00:09:52 89° N 00:14:35 10° E night (unlit)
23 Oct - 01:45:54 10° W 01:50:18 48° SSW 01:54:54 10° SE visible
23 Oct - 03:27:28 10° W 03:30:09 15° SW 03:32:50 10° S visible
23 Oct - 19:12:09 10° SSE 19:13:31 11° SE 19:14:55 10° ESE night (unlit)
23 Oct - 20:49:11 10° SW 20:53:06 44° SSE 20:57:17 10° E night (unlit)
23 Oct - 22:29:10 10° W 22:33:27 90° NNE 22:38:02 10° E night (unlit)
24 Oct - 00:09:36 10° W 00:14:03 83° SSW 00:18:46 10° ESE night (unlit)
24 Oct - 01:50:09 10° W 01:54:22 36° SSW 01:58:44 10° SE visible
24 Oct - 19:14:43 10° S 19:17:23 17° SE 19:20:09 10° E night (unlit)
24 Oct - 20:53:08 10° SW 20:57:11 57° SSE 21:01:31 10° E night (unlit)
24 Oct - 22:33:21 10° W 22:37:38 85° N 22:42:14 10° E night (unlit)
25 Oct - 00:13:48 10° W 00:18:13 71° SSW 00:22:54 10° ESE night (unlit)
25 Oct - 01:54:31 10° W 01:58:22 27° SW 02:02:22 10° SSE night (unlit)
25 Oct - 19:18:01 10° SSW 19:21:18 24° SE 19:24:44 10° E night (unlit)
25 Oct - 20:57:12 10° WSW 21:01:18 72° SSE 21:05:43 10° E night (unlit)
25 Oct - 22:37:33 10° W 22:41:51 86° N 22:46:26 10° E night (unlit)
26 Oct - 00:17:59 10° W 00:22:20 57° SSW 00:26:57 10° SE night (unlit)
26 Oct - 01:59:03 10° W 02:02:19 19° SW 02:05:41 10° S night (unlit)
26 Oct - 19:21:39 10° SSW 19:25:16 33° SSE 19:29:07 10° E night (unlit)
26 Oct - 21:01:20 10° WSW 21:05:27 84° S 21:09:53 10° E night (unlit)
26 Oct - 22:41:44 10° W 22:46:03 89° SSE 22:50:38 10° E night (unlit)
27 Oct - 00:22:12 10° W 00:26:26 44° SSW 00:30:53 10° SE night (unlit)
27 Oct - 02:04:01 10° WSW 02:06:13 13° SW 02:08:28 10° SSW night (unlit)
27 Oct - 17:48:10 10° SSE 17:49:41 12° SE 17:51:15 10° ESE visible
27 Oct - 19:25:29 10° SW 19:29:18 45° SSE 19:33:23 10° E night (unlit)
27 Oct - 21:05:30 10° W 21:09:38 88° NNW 21:14:05 10° E night (unlit)
27 Oct - 22:45:55 10° W 22:50:13 80° SSW 22:54:48 10° ESE night (unlit)
28 Oct - 00:26:28 10° W 00:30:28 33° SSW 00:34:40 10° SSE night (unlit)
28 Oct - 17:50:52 10° S 17:53:33 18° SE 17:56:20 10° E visible
28 Oct - 19:29:27 10° WSW 19:33:23 59° SSE 19:37:35 10° E visible
28 Oct - 21:09:41 10° W 21:13:51 85° N 21:18:17 10° E night (unlit)
28 Oct - 22:50:06 10° W 22:54:22 68° SSW 22:58:55 10° ESE night (unlit)
29 Oct - 00:30:51 10° W 00:34:28 24° SW 00:38:13 10° SSE night (unlit)
29 Oct - 17:54:14 10° SSW 17:57:28 25° SE 18:00:53 10° E visible
29 Oct - 19:33:31 10° WSW 19:37:30 74° SSE 19:41:46 10° E visible
29 Oct - 21:13:52 10° W 21:18:01 86° N 21:22:29 10° E night (unlit)
29 Oct - 22:54:17 10° W 22:58:28 54° SSW 23:02:56 10° SE night (unlit)
30 Oct - 00:35:28 10° W 00:38:24 17° SW 00:41:26 10° S night (unlit)
30 Oct - 17:57:54 10° SW 18:01:27 35° SSE 18:05:13 10° E visible
30 Oct - 19:37:39 10° WSW 19:41:39 86° S 19:45:57 10° E visible
30 Oct - 21:18:03 10° W 21:22:13 88° S 21:26:40 10° E night (unlit)
30 Oct - 22:58:30 10° W 23:02:32 41° SSW 23:06:50 10° SE night (unlit)
